COSMOS 2251 DEB, 33782

Orbit data source: Space-Track

COSMOS 2251 DEB, 33782 is space debris in LEO originally from a launch on Wed, 16 Jun 1993 UTC launched from the Plesetsk Missile And Space Complex (PKMTR). The debris from Iridium 33, an American commercial communications satellite, has been tracked extensively since its accidental collision with the defunct Russian satellite Cosmos 2251 in 2009. This event, occurring at high speed in low Earth orbit (LEO), generated thousands of pieces of space debris, significantly increasing the risk of further collisions. The Iridium 33 debris cloud has impacted space traffic management and orbital debris mitigation strategies, making it a subject of ongoing study in space situational awareness.

Loading next visibility...
Identifier
33782, 1993-036X
Orbit
LEO
Country
Flag of CISCIS
Related business
Manufacturer
Unknown
Mission
Spacecraft
Bus & Motor
Unknown
Mass
Unknown
Launch date (UTC)
1993-06-16 (33 years ago)
Launch vehicle
Unknown
Launch site
Plesetsk Missile And Space Complex (PKMTR)
Object type
Payload
Rocket body
Debris
Shape & HBR
Unknown shape, 0.1 m
Radar Cross Section
Small (<0.1 m²)

Expand to show TLE details & history
Last TLE update: 6 hours ago

TLE from 6 hours ago
0 COSMOS 2251 DEB
1 33782U 93036X   26034.50923052  .00001607  00000-0  51082-3 0  9998
2 33782  74.0333 179.9426 0021171 238.7106 188.3186 14.40616665888864
Epoch: 2026-02-03T12:13Z
TLE epoch observation values (Epoch: 2026-02-03T12:13:17.516Z)
Latitude
62.34867°
Longitude
-104.16825°
Altitude
781.749 km
Speed
7.461 km/s
True Right ascension
14h 11m 22s
True Declination
62° 12' 27"
Sunlit
Object was in daylight at epoch
Visualization orbit readout
Latitude
Unknown
Longitude
Unknown
Altitude
Unknown
Speed
Unknown
Apparent Right ascension
Unknown
Apparent Declination
Unknown
Sunlit
N/A
Visualization observer readout
Local Sidereal Time
19:38:36
Azimuth
Unknown
Elevation
Unknown
Doppler factor
Unknown
Orbital elements
Apogee altitude
769.18 km
Perigee altitude
738.981 km
Semi-major axis
7,132.218 km
Eccentricity
0.00212
Inclination
74.0333°
RAAN
179.9426°
Arg. of periapsis
238.7106°
True anomaly
188.28359°
Mean anomaly
188.3186°
Eccentric anomaly
188.30109°
Mean motion
3.60335 °/min
Orbital period
99.91 mins
BSTAR
0.00051082
Loading maneuver chart data...
Computing Atmospheric mass density...

Documentation

Showing up to 5 results
|